Location: Unspecified
(0.0000°N, 0.0000°E)
Time: 19:30:52
(UTC+00:00)

Envisat - Pass Details

Date: 02 June 2023
Orbit: 763 x 765 km, 98.2° (Epoch: 05 June)

Event Time Altitude Azimuth Distance (km) Brightness Sun altitude
Rises 03:17:09 0° 16° (NNE) 3,211 6.8 -36.7°
Reaches altitude 10° 03:19:27 10° 19° (NNE) 2,288 5.9 -36.2°
Enters shadow 03:21:28 24° 24° (NNE) 1,522 4.9 -35.8°
